FW1542 Weather Reports


time (UTC)temp
C
wind
direction
speed
KPH
gust
KPH
rain 1hr
cm
rain 24hr
cm
rain mn
cm
humidity
%
barometer
mb
20260831050112 28 160 9.7 22.5 0.00 0.00 0.00 73 1015.2
20260831050015 28 115 9.7 22.5 0.00 0.00 0.00 74 1016.7
20260831044553 28 130 8.0 17.7 0.00 0.00 0.00 70 1015.1
20260831044521 28 117 8.0 16.1 0.00 0.00 0.00 71 1016.6
20260831043102 28 173 12.9 22.5 0.00 0.00 0.00 69 1015.1
20260831043013 28 159 12.9 22.5 0.00 0.00 0.00 70 1016.5
20260831041608 29 139 8.0 22.5 0.00 0.00 0.00 68 1014.9
20260831041512 29 151 8.0 24.1 0.00 0.00 0.00 69 1016.3
20260831040058 29 146 12.9 27.4 0.00 0.00 0.00 67 1014.5
20260831040011 29 130 11.3 27.4 0.00 0.00 0.00 68 1016.1
20260831034551 30 163 12.9 29.0 0.00 0.00 0.00 65 1014.3
20260831034511 30 162 12.9 29.0 0.00 0.00 0.00 65 1016.2
20260831033106 30 101 14.5 25.7 0.00 0.00 0.00 63 1014.3
20260831033016 30 134 14.5 24.1 0.00 0.00 0.00 63 1016.0
20260831031549 30 113 9.7 22.5 0.00 0.00 0.00 63 1014.2
20260831031514 30 163 8.0 22.5 0.00 0.00 0.00 63 1015.9
20260831030059 31 137 9.7 29.0 0.00 0.00 0.00 63 1013.9
20260831030009 31 118 9.7 29.0 0.00 0.00 0.00 63 1015.6
20260831024554 31 113 9.7 22.5 0.00 0.00 0.00 63 1013.6
20260831024509 31 158 11.3 22.5 0.00 0.00 0.00 64 1015.5
20260831023058 31 120 11.3 27.4 0.00 0.00 0.00 63 1013.4
20260831023007 31 136 12.9 27.4 0.00 0.00 0.00 63 1015.1
20260831021557 31 141 9.7 27.4 0.00 0.00 0.00 62 1012.9
20260831021512 31 115 9.7 24.1 0.00 0.00 0.00 62 1014.5
20260831020110 32 123 14.5 29.0 0.00 0.00 0.00 61 1012.7
20260831020007 32 138 14.5 29.0 0.00 0.00 0.00 61 1014.5
20260831014555 32 74 6.4 25.7 0.00 0.00 0.00 59 1012.5
20260831014508 32 131 8.0 24.1 0.00 0.00 0.00 60 1014.4
20260831013104 32 134 9.7 25.7 0.00 0.00 0.00 57 1012.4
20260831013005 32 142 9.7 25.7 0.00 0.00 0.00 58 1014.0
20260831011556 33 126 12.9 38.6 0.00 0.00 0.00 55 1012.4
20260831011505 33 140 12.9 35.4 0.00 0.00 0.00 56 1014.1
20260831010004 33 140 6.4 14.5 0.00 0.00 0.00 51 1013.8
20260831004600 33 147 4.8 12.9 0.00 0.00 0.00 50 1012.2
20260831004504 33 130 3.2 12.9 0.00 0.00 0.00 50 1013.6
20260831003055 33 132 4.8 16.1 0.00 0.00 0.00 49 1011.9
20260831003003 33 121 4.8 16.1 0.00 0.00 0.00 49 1013.4
20260831001552 34 150 4.8 9.7 0.00 0.00 0.00 48 1011.9
20260831001504 34 159 4.8 8.0 0.00 0.00 0.00 49 1013.4
20260831000112 34 174 4.8 14.5 0.00 0.00 0.00 48 1011.9
20260831000002 34 180 6.4 11.3 0.00 0.00 0.00 48 1013.4
20260830234556 35 130 4.8 14.5 0.00 0.00 0.00 47 1012.0
20260830234503 35 129 4.8 12.9 0.00 0.00 0.00 48 1013.6
20260830233100 35 133 8.0 17.7 0.00 0.00 0.00 47 1013.5
20260830233055 35 144 8.0 17.7 0.00 0.00 0.00 47 1011.9
20260830231605 35 125 6.4 19.3 0.00 0.00 0.00 48 1013.5
20260830231554 35 146 6.4 19.3 0.00 0.00 0.00 48 1012.1
20260830230059 35 126 6.4 17.7 0.00 0.00 0.00 47 1013.5
20260830224557 35 94 3.2 11.3 0.00 0.00 0.00 48 1013.8
20260830223056 35 159 6.4 17.7 0.00 0.00 0.00 48 1013.9
20260830223054 35 123 6.4 17.7 0.00 0.00 0.00 47 1012.4
20260830221555 36 157 11.3 19.3 0.00 0.00 0.00 47 1013.9
20260830221553 36 143 8.0 16.1 0.00 0.00 0.00 47 1012.4
20260830220106 35 197 1.6 12.9 0.00 0.00 0.00 50 1012.3
20260830220101 35 135 3.2 11.3 0.00 0.00 0.00 50 1014.0
20260830214558 35 132 11.3 25.7 0.00 0.00 0.00 48 1012.5
20260830214554 35 142 11.3 25.7 0.00 0.00 0.00 49 1014.1
20260830213056 35 115 8.0 25.7 0.00 0.00 0.00 49 1012.7
20260830213051 35 174 6.4 19.3 0.00 0.00 0.00 50 1014.2
20260830211608 36 121 9.7 22.5 0.00 0.00 0.00 49 1012.8
20260830211552 35 108 6.4 22.5 0.00 0.00 0.00 49 1014.5
20260830210056 35 130 6.4 22.5 0.00 0.00 0.00 50 1013.0
20260830210048 35 126 6.4 22.5 0.00 0.00 0.00 50 1014.8
20260830204600 36 169 6.4 22.5 0.00 0.00 0.00 49 1013.3
20260830204546 36 148 6.4 19.3 0.00 0.00 0.00 49 1015.1
20260830203100 36 0 0.0 12.9 0.00 0.00 0.00 50 1013.5
20260830203043 36 193 0.0 11.3 0.00 0.00 0.00 51 1015.2
20260830201559 35 211 4.8 16.1 0.00 0.00 0.00 52 1013.9
20260830201541 35 221 3.2 12.9 0.00 0.00 0.00 53 1015.6
20260830200058 35 134 6.4 16.1 0.00 0.00 0.00 51 1014.1
20260830200036 35 134 4.8 16.1 0.00 0.00 0.00 52 1015.8
20260830194604 34 84 3.2 20.9 0.00 0.00 0.00 54 1014.7
20260830194534 34 84 3.2 16.1 0.00 0.00 0.00 55 1016.1
20260830193100 34 122 6.4 16.1 0.00 0.00 0.00 53 1015.0
20260830193031 34 122 8.0 16.1 0.00 0.00 0.00 54 1016.3
20260830191600 34 149 4.8 14.5 0.00 0.00 0.00 55 1015.1
20260830191535 34 138 1.6 14.5 0.00 0.00 0.00 55 1016.5
20260830190026 34 172 9.7 19.3 0.00 0.00 0.00 55 1016.7
20260830184554 33 159 3.2 24.1 0.00 0.00 0.00 57 1015.5
20260830184523 33 128 4.8 17.7 0.00 0.00 0.00 57 1017.0
20260830183058 33 132 11.3 24.1 0.00 0.00 0.00 56 1015.7
20260830183020 33 136 12.9 24.1 0.00 0.00 0.00 57 1017.2
20260830181557 33 113 3.2 14.5 0.00 0.00 0.00 58 1016.0
20260830181519 33 213 3.2 14.5 0.00 0.00 0.00 59 1017.5
20260830180107 33 157 1.6 14.5 0.00 0.00 0.00 58 1016.3
20260830180020 33 178 3.2 14.5 0.00 0.00 0.00 58 1018.1
20260830174547 33 186 6.4 17.7 0.00 0.00 0.00 58 1016.5
20260830174517 33 176 6.4 16.1 0.00 0.00 0.00 59 1018.3
20260830173116 33 167 4.8 17.7 0.00 0.00 0.00 61 1016.6
20260830173014 33 165 3.2 16.1 0.00 0.00 0.00 61 1018.3
20260830171602 32 0 1.6 14.5 0.00 0.00 0.00 62 1016.7
20260830171511 32 230 3.2 14.5 0.00 0.00 0.00 63 1018.5
20260830170051 32 125 4.8 17.7 0.00 0.00 0.00 63 1016.9
20260830170030 32 131 6.4 17.7 0.00 0.00 0.00 63 1018.6
20260830164555 32 96 0.0 12.9 0.00 0.00 0.00 66 1017.0
20260830164507 32 99 0.0 12.9 0.00 0.00 0.00 66 1018.7
20260830163054 31 154 8.0 16.1 0.00 0.00 0.00 66 1017.0
20260830163007 31 101 8.0 16.1 0.00 0.00 0.00 67 1018.7
20260830161606 31 169 3.2 9.7 0.00 0.00 0.00 69 1016.9
20260830161502 31 211 3.2 9.7 0.00 0.00 0.00 68 1018.6
20260830160106 31 0 3.2 12.9 0.00 0.00 0.00 72 1017.0
20260830154557 30 178 4.8 14.5 0.00 0.00 0.00 74 1018.9
20260830154551 30 178 6.4 14.5 0.00 0.00 0.00 73 1017.1
20260830153102 30 202 4.8 19.3 0.00 0.00 0.00 76 1017.1
20260830153053 30 110 1.6 17.7 0.00 0.00 0.00 77 1018.8
20260830151607 28 225 1.6 12.9 0.00 0.00 0.00 79 1017.1
20260830151603 28 211 3.2 11.3 0.00 0.00 0.00 80 1018.8
20260830150056 28 211 6.4 17.7 0.00 0.00 0.00 79 1017.1
20260830150050 28 195 6.4 16.1 0.00 0.00 0.00 80 1018.8
20260830144557 27 202 3.2 14.5 0.00 0.00 0.00 84 1017.1
20260830144554 27 239 3.2 14.5 0.00 0.00 0.00 85 1018.8
20260830143100 26 182 4.8 16.1 0.00 0.00 0.00 87 1017.2
20260830143046 26 162 4.8 16.1 0.00 0.00 0.00 87 1018.7
20260830141645 26 178 1.6 9.7 0.00 0.00 0.00 89 1018.8
20260830141554 26 0 3.2 14.5 0.00 0.00 0.00 89 1016.9
20260830140105 26 217 1.6 14.5 0.00 0.00 0.00 89 1017.0
20260830140045 26 217 0.0 12.9 0.00 0.00 0.00 90 1018.7
20260830134600 25 138 4.8 11.3 0.00 0.00 0.00 91 1016.8
20260830134552 25 138 3.2 9.7 0.00 0.00 0.00 91 1018.6
20260830133058 25 149 1.6 9.7 0.00 0.00 0.00 91 1016.8
20260830133041 25 226 1.6 9.7 0.00 0.00 0.00 92 1018.5
20260830131601 25 229 1.6 12.9 0.00 0.00 0.00 92 1016.6
20260830131551 25 178 1.6 12.9 0.00 0.00 0.00 93 1018.4
20260830130104 25 163 1.6 8.0 0.00 0.00 0.00 92 1016.4
20260830130037 25 165 1.6 8.0 0.00 0.00 0.00 93 1018.3
20260830124558 25 0 3.2 9.7 0.00 0.00 0.00 92 1016.3
20260830124539 25 155 3.2 8.0 0.00 0.00 0.00 93 1018.2
20260830123100 25 165 0.0 14.5 0.00 0.00 0.00 92 1016.2
20260830123039 25 165 0.0 12.9 0.00 0.00 0.00 92 1018.1
20260830121606 25 165 3.2 12.9 0.00 0.00 0.00 92 1016.2
20260830121536 25 159 3.2 11.3 0.00 0.00 0.00 92 1018.0
20260830120038 25 185 3.2 8.0 0.00 0.00 0.00 92 1018.0
20260830114559 25 191 0.0 9.7 0.00 0.00 0.00 91 1016.1
20260830114535 25 191 0.0 6.4 0.00 0.00 0.00 92 1017.9
20260830113052 25 0 3.2 16.1 0.00 0.00 0.00 91 1016.1
20260830113033 25 167 1.6 14.5 0.00 0.00 0.00 91 1017.9
20260830111553 25 167 1.6 9.7 0.00 0.00 0.00 91 1016.1
20260830111533 25 167 3.2 9.7 0.00 0.00 0.00 91 1018.0
20260830110031 25 174 0.0 6.4 0.00 0.00 0.00 90 1017.9
20260830104600 25 0 3.2 11.3 0.00 0.00 0.00 90 1016.1
20260830104531 25 168 1.6 11.3 0.00 0.00 0.00 90 1017.9
20260830103056 25 191 4.8 17.7 0.00 0.00 0.00 90 1016.0
20260830103033 25 191 4.8 16.1 0.00 0.00 0.00 90 1017.7
20260830101557 25 170 3.2 14.5 0.00 0.00 0.00 89 1016.0
20260830101529 25 173 3.2 12.9 0.00 0.00 0.00 90 1017.9
20260830100053 25 207 3.2 14.5 0.00 0.00 0.00 89 1016.2
20260830100030 25 196 4.8 12.9 0.00 0.00 0.00 90 1018.0
20260830094558 25 195 1.6 9.7 0.00 0.00 0.00 89 1016.0
20260830094529 25 162 3.2 12.9 0.00 0.00 0.00 90 1017.8
20260830093056 25 173 3.2 12.9 0.00 0.00 0.00 89 1016.2
20260830093038 25 172 3.2 12.9 0.00 0.00 0.00 90 1017.7
20260830091559 25 177 1.6 8.0 0.00 0.00 0.00 88 1016.2
20260830091527 25 177 1.6 8.0 0.00 0.00 0.00 89 1017.9
20260830090055 24 159 1.6 6.4 0.00 0.00 0.00 88 1016.0
20260830090026 24 159 3.2 6.4 0.00 0.00 0.00 88 1017.7
20260830084557 25 0 1.6 4.8 0.00 0.00 0.00 87 1016.0
20260830084525 25 143 0.0 4.8 0.00 0.00 0.00 87 1017.9
20260830083052 25 139 0.0 4.8 0.00 0.00 0.00 86 1016.1
20260830083024 25 139 0.0 4.8 0.00 0.00 0.00 86 1017.5
20260830081557 25 0 1.6 3.2 0.00 0.00 0.00 84 1016.2
20260830081524 25 147 1.6 3.2 0.00 0.00 0.00 85 1017.9
20260830080055 25 0 0.0 4.8 0.00 0.00 0.00 83 1016.2
20260830080020 25 146 0.0 4.8 0.00 0.00 0.00 84 1018.0
20260830074557 25 0 0.0 4.8 0.00 0.00 0.00 82 1016.2
20260830074519 25 127 0.0 4.8 0.00 0.00 0.00 83 1018.1
20260830073051 26 169 1.6 9.7 0.00 0.00 0.00 81 1016.3
20260830073017 26 169 1.6 8.0 0.00 0.00 0.00 82 1018.2
20260830071558 26 92 1.6 16.1 0.00 0.00 0.00 80 1016.3
20260830071515 26 92 0.0 11.3 0.00 0.00 0.00 80 1018.1
20260830070058 26 156 4.8 14.5 0.00 0.00 0.00 79 1016.3
20260830070012 26 180 4.8 14.5 0.00 0.00 0.00 79 1018.1
20260830064606 26 146 3.2 14.5 0.00 0.00 0.00 78 1016.3
20260830064511 26 134 4.8 12.9 0.00 0.00 0.00 79 1018.0
20260830063049 26 134 4.8 16.1 0.00 0.00 0.00 77 1016.2
20260830063009 26 176 6.4 16.1 0.00 0.00 0.00 77 1018.0
20260830061606 27 165 1.6 14.5 0.00 0.00 0.00 75 1018.1
20260830061555 27 176 1.6 14.5 0.00 0.00 0.00 75 1016.2
20260830060100 27 154 6.4 16.1 0.00 0.00 0.00 74 1016.2
20260830060005 27 164 8.0 16.1 0.00 0.00 0.00 74 1017.8
20260830054559 27 119 6.4 17.7 0.00 0.00 0.00 73 1016.3
20260830054502 27 129 6.4 17.7 0.00 0.00 0.00 73 1018.0
20260830053101 27 144 4.8 17.7 0.00 0.00 0.00 73 1018.1
20260830053056 27 158 6.4 17.7 0.00 0.00 0.00 72 1016.2
20260830051557 28 149 8.0 17.7 0.00 0.00 0.00 72 1017.8